STARLINK-34127, 63810

Orbit data source: Space-Track

STARLINK-34127, 63810 is a payload satellite owned by SpaceX/Seattle (US) in LEO that was launched on Sun, 04 May 2025 UTC via an FALCON 9 launch vehicle from the Air Force Eastern Test Range (AFETR). Payload-class satellites include a variety of spacecraft equipped with specific instruments for various scientific and technological missions. These include communications satellites like Starlink; space stations such as the ISS; scientific satellites like the Hubble; Earth observation satellites from companies like Planet Labs, Umbra, and HawkEye 360; GPS; miniature CubeSats for education and research; and military/defense satellites.

Loading next visibility...
Identifier
63810, 2025-092G
Orbit
LEO
Last TLE update
15 hours ago
Origin
Manufacturer
SpaceX/Seattle
Mission
Operational spacecraft
Bus & Motor
STARLINK V2MO, Unknown motor
Mass
575 kg wet, ~530 kg dry
Launch date (UTC)
2025-05-04 (1 week ago)
Launch vehicle
FALCON 9
Launch site
Air Force Eastern Test Range (AFETR)
Object type
Payload
Rocket body
Debris
Shape & HBR
Unknown
Radar Cross Section
Medium (>0.1 m² and <1 m²)

Expand to show TLE details & history

TLE from 15 hours ago
0 STARLINK-34127
1 63810U 25092G   25132.91668981 -.00884740  00000-0 -32864-2 0  9995
2 63810  43.0006  80.1753 0001621 252.1500  52.9062 15.89085809  2506
Epoch: 2025-05-12T22:00Z
Definitive object data (Epoch: 2025-05-12T22:00:01.999Z)
Latitude
-34.11013°
Longitude
-166.99306°
Altitude
313.799 km
Speed
7.721 km/s
True Right ascension
02h 15m 45s
True Declination
-33° 56' 24"
Sunlit
Object was in daylight at TLE epoch
Visualization TLE readout
Latitude
7.58311°
Longitude
-116.55836°
Altitude
307.887 km
Speed
7.725 km/s
Apparent Right ascension
07h 21m 48s
Apparent Declination
-17° 53' 49"
Sunlit
Object is in daylight
Visualization observer readout
Local Sidereal Time
21:47:48
Azimuth
65.736° ENE
Elevation
-51.619°
Doppler factor
1
Orbital elements
Apogee altitude
307.925 km
Perigee altitude
305.758 km
Semi-major axis
6,684.978 km
Eccentricity
0.0001621
Inclination
43.0006°
RAAN
80.1753°
Arg. of periapsis
252.15°
True anomaly
52.92102°
Mean anomaly
52.9062°
Eccentric anomaly
52.91361°
Mean motion
3.97094 °/min
BSTAR
-0.0032864
Orbital period
90.66 mins
Loading maneuver chart data...
Loading SW <> Apogee altitude chart data...
Loading historical data...
Loading historical data...
Loading historical data...
Loading historical data...
Loading historical data...
Loading historical data...
Loading historical data...

STARLINK-34127 Visibility forecast

Observer location: undefined°, undefined°

Span
Click to sort rows by Start time (UTC) header in descending order
Start Az.
Max El. time (UTC)
Max El. Az.
Max El.
End time (UTC)
End Az.
4 mins2025-05-14 00:08:04.022Z228.042° WSW2025-05-14 00:10:04.022Z120.905° SE35.929°2025-05-14 00:12:04.022Z79.229° E
|